Terug naar catalogus

TITAN 34B DEB

LostHEO
NORAD 23806·DEBRIS·🇺🇸 United States

Gelanceerd Apr 24, 1981 vanaf Vandenberg Space Force Base

Loading…

Volgende Passages (komende 24 uur)

TLE

VerouderdSource: Space-Track

Epoch: Aug 16, 2022, 21:01 UTC

1 23806U 81038D   22228.87630174  .00015694 -24120-6  54593-3 0  9991
2 23806  63.0669  69.7484 6654427 272.5825  18.8234  3.15706693 37246

Volg TITAN 34B DEB in realtime met AllMySat

Download on the App Store